Location: Grange Verzio
(44.5000°N, 6.9833°E)
Time: 17:12:56
(UTC+00:00)

Cosmos 2219 Rocket - Pass Details

Date: 03 October 2023
Orbit: 826 x 848 km, 71.0° (Epoch: 08 December)

Event Time Altitude Azimuth Distance (km) Brightness Sun altitude
Rises 01:22:42 0° 341° (NNW) 3,397 5.7 -41.4°
Reaches altitude 10° 01:25:33 10° 354° (N) 2,463 5.0 -41.0°
Enters shadow 01:26:44 15° 3° (N) 2,121 4.6 -40.9°
Exits shadow 01:37:04 - 118° (ESE) 3,136 5.3 -39.6°
Sets 01:37:50 0° 120° (ESE) 3,397 5.5 -39.5°
